Time,TemperatureF,DewpointF,PressureIn,WindDirection,WindDirectionDegrees,WindSpeedMPH,WindSpeedGustMPH,Humidity,HourlyPrecipIn,Conditions,Clouds,dailyrainin,SoftwareType,DateUTC
2013-09-22 08:22:00,57.0,53.0,30.00,NNE,26,0.0,3.0,85,0.01,,,0.01,,2013-09-22 13:22:00,
2013-09-22 08:42:00,58.0,54.0,30.01,ENE,63,1.0,3.0,85,0.01,,,0.01,,2013-09-22 13:42:00,
2013-09-22 08:52:00,60.0,54.0,30.01,ENE,59,0.0,3.0,82,0.00,,,0.01,,2013-09-22 13:52:00,
2013-09-22 09:11:00,61.0,54.0,30.01,ENE,70,1.0,5.0,79,0.00,,,0.01,,2013-09-22 14:11:00,
2013-09-22 09:22:00,61.0,54.0,30.01,ENE,70,1.0,5.0,79,0.00,,,0.01,,2013-09-22 14:22:00,
2013-09-22 09:42:00,62.0,53.0,30.02,ENE,63,2.0,6.0,73,0.00,,,0.01,,2013-09-22 14:42:00,
2013-09-22 09:52:00,63.0,54.0,30.02,East,82,2.0,8.0,72,0.00,,,0.01,,2013-09-22 14:52:00,
2013-09-22 10:12:00,64.0,54.0,30.02,ESE,120,3.0,7.0,69,0.00,,,0.01,,2013-09-22 15:12:00,
2013-09-22 10:23:00,64.0,53.0,30.02,ESE,108,3.0,8.0,68,0.00,,,0.01,,2013-09-22 15:23:00,
2013-09-22 10:44:00,65.0,54.0,30.02,East,92,4.0,8.0,67,0.00,,,0.01,,2013-09-22 15:44:00,
2013-09-22 10:54:00,66.0,55.0,30.02,East,93,2.0,7.0,67,0.00,,,0.01,,2013-09-22 15:54:00,
2013-09-22 11:13:00,67.0,54.0,30.02,NE,52,2.0,10.0,63,0.00,,,0.01,,2013-09-22 16:13:00,
2013-09-22 11:24:00,68.0,54.0,30.02,SE,141,2.0,6.0,60,0.00,,,0.01,,2013-09-22 16:24:00,
2013-09-22 11:43:00,68.0,54.0,30.02,SE,132,2.0,7.0,62,0.00,,,0.01,,2013-09-22 16:43:00,
2013-09-22 11:54:00,69.0,54.0,30.02,East,86,1.0,6.0,59,0.00,,,0.01,,2013-09-22 16:54:00,
2013-09-22 12:12:00,70.0,55.0,30.02,ENE,71,2.0,7.0,58,0.00,,,0.01,,2013-09-22 17:12:00,
2013-09-22 12:23:00,70.0,53.0,30.01,ESE,110,4.0,10.0,55,0.00,,,0.01,,2013-09-22 17:23:00,
2013-09-22 12:43:00,70.0,54.0,30.01,North,355,2.0,7.0,57,0.00,,,0.01,,2013-09-22 17:43:00,
2013-09-22 12:53:00,70.0,54.0,30.01,ENE,73,1.0,8.0,56,0.00,,,0.01,,2013-09-22 17:53:00,
2013-09-22 13:13:00,71.0,54.0,30.00,ENE,75,1.0,9.0,56,0.00,,,0.01,,2013-09-22 18:13:00,
2013-09-22 13:22:00,72.0,53.0,30.00,NW,319,2.0,7.0,52,0.00,,,0.01,,2013-09-22 18:22:00,
2013-09-22 13:42:00,72.0,54.0,29.99,NW,323,4.0,8.0,53,0.00,,,0.01,,2013-09-22 18:42:00,
2013-09-22 13:52:00,72.0,54.0,29.99,WNW,295,0.0,6.0,54,0.00,,,0.01,,2013-09-22 18:52:00,
2013-09-22 14:11:00,73.0,54.0,29.98,SSE,151,0.0,9.0,51,0.00,,,0.01,,2013-09-22 19:11:00,
2013-09-22 14:22:00,74.0,55.0,29.98,East,84,3.0,8.0,51,0.00,,,0.01,,2013-09-22 19:22:00,
2013-09-22 14:52:00,74.0,54.0,29.97,NE,49,1.0,5.0,49,0.00,,,0.01,,2013-09-22 19:52:00,
2013-09-22 15:12:00,73.0,54.0,29.97,NNW,344,1.0,7.0,51,0.00,,,0.01,,2013-09-22 20:12:00,
2013-09-22 15:22:00,74.0,54.0,29.96,ESE,117,1.0,7.0,49,0.00,,,0.01,,2013-09-22 20:22:00,
2013-09-22 15:42:00,75.0,54.0,29.96,ESE,109,2.0,7.0,48,0.00,,,0.01,,2013-09-22 20:42:00,
2013-09-22 15:52:00,75.0,55.0,29.96,WNW,290,1.0,10.0,50,0.00,,,0.01,,2013-09-22 20:52:00,
2013-09-22 16:12:00,74.0,54.0,29.95,NW,318,1.0,5.0,49,0.00,,,0.01,,2013-09-22 21:12:00,
2013-09-22 16:23:00,75.0,53.0,29.95,North,355,0.0,7.0,47,0.00,,,0.01,,2013-09-22 21:23:00,
2013-09-22 16:44:00,74.0,52.0,29.95,North,360,1.0,6.0,46,0.00,,,0.01,,2013-09-22 21:44:00,
2013-09-22 16:54:00,74.0,54.0,29.95,ENE,61,0.0,6.0,49,0.00,,,0.01,,2013-09-22 21:54:00,
2013-09-22 17:14:00,74.0,52.0,29.94,ENE,65,1.0,7.0,47,0.00,,,0.01,,2013-09-22 22:14:00,
2013-09-22 17:24:00,73.0,53.0,29.94,ENE,59,1.0,6.0,49,0.00,,,0.01,,2013-09-22 22:24:00,
2013-09-22 17:53:00,73.0,54.0,29.95,NNW,341,0.0,5.0,51,0.00,,,0.01,,2013-09-22 22:53:00,
2013-09-22 18:12:00,72.0,53.0,29.95,ENE,63,1.0,6.0,52,0.00,,,0.01,,2013-09-22 23:12:00,
2013-09-22 18:22:00,72.0,54.0,29.95,ENE,76,0.0,4.0,53,0.00,,,0.01,,2013-09-22 23:22:00,
2013-09-22 18:43:00,71.0,54.0,29.95,NE,40,0.0,2.0,55,0.00,,,0.01,,2013-09-22 23:43:00,
2013-09-22 18:52:00,71.0,54.0,29.95,ENE,57,0.0,1.0,56,0.00,,,0.01,,2013-09-22 23:52:00,
2013-09-22 19:12:00,69.0,54.0,29.96,ENE,57,0.0,0.0,58,0.00,,,0.01,,2013-09-23 00:12:00,
2013-09-22 19:23:00,68.0,54.0,29.96,ENE,57,0.0,0.0,62,0.00,,,0.01,,2013-09-23 00:23:00,
2013-09-22 19:42:00,66.0,56.0,29.96,ENE,62,0.0,1.0,69,0.00,,,0.01,,2013-09-23 00:42:00,
2013-09-22 19:53:00,64.0,55.0,29.96,ENE,62,0.0,1.0,73,0.00,,,0.01,,2013-09-23 00:53:00,
2013-09-22 20:12:00,63.0,55.0,29.97,ENE,62,0.0,1.0,76,0.00,,,0.01,,2013-09-23 01:12:00,
2013-09-22 20:22:00,62.0,55.0,29.97,ENE,62,0.0,1.0,79,0.00,,,0.01,,2013-09-23 01:22:00,
2013-09-22 20:43:00,60.0,54.0,29.98,ENE,62,0.0,0.0,82,0.00,,,0.01,,2013-09-23 01:43:00,
2013-09-22 20:52:00,59.0,54.0,29.98,ENE,61,0.0,0.0,84,0.00,,,0.01,,2013-09-23 01:52:00,
2013-09-22 21:11:00,59.0,54.0,29.98,ENE,61,0.0,1.0,84,0.00,,,0.01,,2013-09-23 02:11:00,
2013-09-22 21:22:00,58.0,54.0,29.98,ENE,61,0.0,0.0,85,0.00,,,0.01,,2013-09-23 02:22:00,
2013-09-22 21:42:00,58.0,54.0,29.98,ENE,61,0.0,1.0,86,0.00,,,0.01,,2013-09-23 02:42:00,
2013-09-22 21:52:00,58.0,54.0,29.99,ENE,61,0.0,0.0,87,0.00,,,0.01,,2013-09-23 02:52:00,
2013-09-22 22:12:00,57.0,53.0,29.99,ENE,61,0.0,0.0,87,0.00,,,0.01,,2013-09-23 03:12:00,
2013-09-22 22:22:00,57.0,53.0,29.98,ENE,61,0.0,1.0,87,0.00,,,0.01,,2013-09-23 03:22:00,
2013-09-22 22:44:00,57.0,53.0,29.98,ENE,61,0.0,1.0,87,0.00,,,0.01,,2013-09-23 03:44:00,
2013-09-22 22:54:00,57.0,53.0,29.98,ENE,61,0.0,0.0,86,0.00,,,0.01,,2013-09-23 03:54:00,
2013-09-22 23:14:00,56.0,52.0,29.98,ENE,61,0.0,0.0,86,0.00,,,0.01,,2013-09-23 04:14:00,
2013-09-22 23:24:00,56.0,52.0,29.99,ENE,61,0.0,0.0,87,0.00,,,0.01,,2013-09-23 04:24:00,
2013-09-22 23:43:00,56.0,52.0,29.99,ENE,61,0.0,0.0,87,0.00,,,0.01,,2013-09-23 04:43:00,
2013-09-22 23:53:00,56.0,52.0,29.99,ENE,61,0.0,0.0,87,0.00,,,0.01,,2013-09-23 04:53:00,